SAS193 ENBR-EGPH

Flight info

Callsign SAS193
Flight time N/A
Altitude 36000
Route EPOTU DCT BEREP DCT ADN DCT NAXIL/N0374F240 P600 PTH
Aircraft A320/M-SDE3FGHIRWY/LB1

Departure

Time 2026-05-03 20:28
Airport Bergen Airport, Flesland (ENBR)

Arrival

Time N/A
Airport Edinburgh Airport (EGPH)
Time Latitude Longitude Altitude Speed Heading
2026-05-03 20:15 60.29090 5.22634 152 ft 0 kts 11°
2026-05-03 20:20 60.29086 5.22632 152 ft 2 kts
2026-05-03 20:21 60.29075 5.22629 152 ft 3 kts 301°
2026-05-03 20:21 60.29072 5.22661 152 ft 3 kts 269°
2026-05-03 20:21 60.29072 5.22688 152 ft 1 kts 269°
2026-05-03 20:21 60.29072 5.22694 152 ft 0 kts 269°
2026-05-03 20:24 60.29072 5.22692 152 ft 1 kts 269°
2026-05-03 20:24 60.29071 5.22632 152 ft 6 kts 266°
2026-05-03 20:24 60.29054 5.22530 152 ft 10 kts 226°
2026-05-03 20:24 60.29015 5.22400 151 ft 12 kts 219°
2026-05-03 20:25 60.28919 5.22400 151 ft 16 kts 169°
2026-05-03 20:25 60.28801 5.22443 150 ft 16 kts 170°
2026-05-03 20:25 60.28675 5.22482 149 ft 20 kts 172°
2026-05-03 20:25 60.28541 5.22526 147 ft 16 kts 170°
2026-05-03 20:26 60.28423 5.22566 146 ft 17 kts 171°
2026-05-03 20:26 60.28335 5.22591 146 ft 11 kts 181°
2026-05-03 20:26 60.28289 5.22489 145 ft 12 kts 256°
2026-05-03 20:26 60.28280 5.22361 145 ft 10 kts 263°
2026-05-03 20:27 60.28293 5.22211 146 ft 12 kts 298°
2026-05-03 20:27 60.28370 5.22142 147 ft 14 kts 349°
2026-05-03 20:27 60.28593 5.22065 149 ft 66 kts 351°
2026-05-03 20:27 60.29261 5.21842 153 ft 125 kts 351°
2026-05-03 20:28 60.30238 5.21493 348 ft 153 kts 348°
2026-05-03 20:28 60.31345 5.21138 771 ft 169 kts 349°
2026-05-03 20:28 60.32552 5.20703 1370 ft 184 kts 347°
2026-05-03 20:28 60.33866 5.20154 1952 ft 200 kts 346°
2026-05-03 20:29 60.35253 5.19496 2716 ft 209 kts 345°
2026-05-03 20:29 60.36681 5.18754 3545 ft 215 kts 344°
2026-05-03 20:29 60.38145 5.17974 4393 ft 220 kts 340°
2026-05-03 20:29 60.39626 5.16918 5052 ft 237 kts 340°
2026-05-03 20:30 60.41346 5.16332 5581 ft 262 kts 351°
2026-05-03 20:30 60.43200 5.16083 6446 ft 271 kts 352°
2026-05-03 20:30 60.45097 5.15830 7343 ft 275 kts 348°
2026-05-03 20:30 60.46897 5.14697 8111 ft 272 kts 323°
2026-05-03 20:31 60.48166 5.12044 8596 ft 262 kts 293°
2026-05-03 20:31 60.48640 5.08551 9602 ft 256 kts 271°
2026-05-03 20:31 60.48462 5.04971 10523 ft 256 kts 260°
2026-05-03 20:31 60.47946 5.01523 11368 ft 259 kts 242°
2026-05-03 20:32 60.46730 4.98836 12186 ft 270 kts 218°
2026-05-03 20:32 60.44890 4.97438 12559 ft 304 kts 191°
2026-05-03 20:32 60.42677 4.97581 12912 ft 328 kts 181°
2026-05-03 20:32 60.40377 4.98054 13629 ft 336 kts 180°
2026-05-03 20:33 60.38036 4.98623 14327 ft 341 kts 179°
2026-05-03 20:33 60.35686 4.99207 15019 ft 344 kts 179°
2026-05-03 20:33 60.35536 4.99244 15064 ft 345 kts 179°
2026-05-03 20:33 60.33142 4.99816 15767 ft 348 kts 180°
2026-05-03 20:34 60.30725 5.00361 16454 ft 352 kts 180°
2026-05-03 20:34 60.28278 5.00884 17142 ft 355 kts 180°
2026-05-03 20:34 60.25807 5.01727 17830 ft 363 kts 176°
2026-05-03 20:34 60.23315 5.02708 18469 ft 367 kts 176°
2026-05-03 20:35 60.20793 5.03219 19084 ft 361 kts 188°
2026-05-03 20:35 60.18344 5.02465 19741 ft 354 kts 203°
2026-05-03 20:35 60.16112 5.00515 20429 ft 347 kts 217°
2026-05-03 20:35 60.14221 4.97555 21112 ft 343 kts 229°
2026-05-03 20:36 60.12759 4.93786 21778 ft 342 kts 241°
2026-05-03 20:36 60.11579 4.89629 22434 ft 345 kts 242°
2026-05-03 20:36 60.10383 4.85431 23104 ft 348 kts 242°
2026-05-03 20:36 60.09172 4.81202 23710 ft 351 kts 242°
2026-05-03 20:37 60.07942 4.76942 24180 ft 356 kts 242°
2026-05-03 20:37 60.06690 4.72624 24643 ft 361 kts 241°
2026-05-03 20:37 60.05421 4.68248 25153 ft 365 kts 241°
2026-05-03 20:37 60.04144 4.63838 25682 ft 368 kts 242°
2026-05-03 20:38 60.02861 4.59404 26256 ft 369 kts 242°
2026-05-03 20:38 60.01573 4.54945 26790 ft 371 kts 241°
2026-05-03 20:38 60.00276 4.50465 27307 ft 374 kts 241°
2026-05-03 20:38 59.98965 4.45954 27817 ft 377 kts 241°
2026-05-03 20:39 59.97642 4.41414 28314 ft 380 kts 241°
2026-05-03 20:39 59.96304 4.36842 28799 ft 383 kts 241°
2026-05-03 20:39 59.94957 4.32242 29274 ft 385 kts 241°
2026-05-03 20:39 59.93600 4.27612 29715 ft 388 kts 241°
2026-05-03 20:40 59.92229 4.22952 30126 ft 391 kts 240°
2026-05-03 20:40 59.90863 4.18323 30485 ft 394 kts 240°
2026-05-03 20:40 59.89471 4.13614 30839 ft 396 kts 240°
2026-05-03 20:40 59.88066 4.08873 31183 ft 399 kts 240°
2026-05-03 20:41 59.86602 4.04149 31535 ft 402 kts 238°
2026-05-03 20:41 59.85062 3.99520 31997 ft 401 kts 237°
2026-05-03 20:41 59.83472 3.94954 32496 ft 400 kts 236°
2026-05-03 20:41 59.81862 3.90418 32951 ft 400 kts 236°
2026-05-03 20:42 59.80255 3.85896 33366 ft 401 kts 236°
2026-05-03 20:42 59.78651 3.81354 33823 ft 402 kts 236°
2026-05-03 20:42 59.77060 3.76804 34233 ft 401 kts 237°
2026-05-03 20:42 59.75473 3.72237 34598 ft 402 kts 237°
2026-05-03 20:43 59.73888 3.67664 34964 ft 403 kts 237°
2026-05-03 20:43 59.72299 3.63078 35314 ft 404 kts 237°
2026-05-03 20:43 59.70704 3.58483 35661 ft 405 kts 237°
2026-05-03 20:43 59.69099 3.53879 35899 ft 407 kts 237°
2026-05-03 20:44 59.67489 3.49287 35950 ft 405 kts 237°
2026-05-03 20:44 59.64268 3.40158 35951 ft 404 kts 237°
2026-05-03 20:45 59.61059 3.31070 35949 ft 403 kts 237°
2026-05-03 20:45 59.57846 3.21970 35951 ft 404 kts 237°
2026-05-03 20:46 59.54617 3.12889 35942 ft 406 kts 236°
2026-05-03 20:46 59.51362 3.03784 35948 ft 407 kts 236°
2026-05-03 20:47 59.48118 2.94739 35957 ft 407 kts 236°
2026-05-03 20:47 59.44847 2.85656 35951 ft 407 kts 236°
2026-05-03 20:48 59.41573 2.76592 35952 ft 407 kts 236°
2026-05-03 20:48 59.38293 2.67541 35943 ft 407 kts 236°
2026-05-03 20:49 59.35005 2.58506 35952 ft 407 kts 236°
2026-05-03 20:49 59.32269 2.51008 35948 ft 407 kts 236°
2026-05-03 20:50 59.28950 2.41942 35915 ft 407 kts 236°
2026-05-03 20:50 59.25653 2.33000 35911 ft 408 kts 236°
2026-05-03 20:51 59.22320 2.23995 35942 ft 409 kts 236°
2026-05-03 20:51 59.18989 2.14989 35946 ft 409 kts 236°
2026-05-03 20:52 59.15642 2.05994 35951 ft 410 kts 236°
2026-05-03 20:52 59.12286 1.97019 35972 ft 410 kts 236°
2026-05-03 20:53 59.08927 1.88050 35980 ft 410 kts 236°
2026-05-03 20:53 59.05548 1.79085 35979 ft 410 kts 236°
2026-05-03 20:54 59.02143 1.70184 35972 ft 411 kts 235°
2026-05-03 20:54 58.96901 1.56989 35956 ft 412 kts 234°
2026-05-03 20:55 58.93379 1.48191 35959 ft 413 kts 234°
2026-05-03 20:55 58.89856 1.39409 35965 ft 413 kts 234°
2026-05-03 20:56 58.86328 1.30627 35972 ft 413 kts 234°
2026-05-03 20:56 58.82818 1.21912 35976 ft 414 kts 234°
2026-05-03 20:57 58.79274 1.13152 35978 ft 414 kts 234°
2026-05-03 20:57 58.75722 1.04397 35982 ft 415 kts 234°
2026-05-03 20:58 58.72164 0.95662 35985 ft 415 kts 234°
2026-05-03 20:58 58.68592 0.86933 35990 ft 415 kts 234°
2026-05-03 20:59 58.65012 0.78235 35992 ft 415 kts 234°
2026-05-03 20:59 58.61428 0.69558 35995 ft 415 kts 234°
2026-05-03 21:00 58.58425 0.62295 35995 ft 415 kts 234°
2026-05-03 21:00 58.54251 0.52231 35994 ft 415 kts 234°
2026-05-03 21:01 58.50652 0.43576 35994 ft 415 kts 234°
2026-05-03 21:01 58.47040 0.34953 35972 ft 416 kts 234°
2026-05-03 21:02 58.43416 0.26325 35975 ft 417 kts 233°
2026-05-03 21:02 58.39779 0.17707 35983 ft 417 kts 233°
2026-05-03 21:03 58.36134 0.09091 35992 ft 418 kts 233°
2026-05-03 21:03 58.32481 0.00482 35996 ft 418 kts 233°
2026-05-03 21:04 58.28824 -0.08108 35993 ft 418 kts 234°
2026-05-03 21:04 58.25152 -0.16689 35997 ft 419 kts 233°
2026-05-03 21:05 58.21473 -0.25271 36000 ft 419 kts 233°
2026-05-03 21:05 58.17779 -0.33840 35975 ft 420 kts 233°
2026-05-03 21:06 58.14075 -0.42405 35981 ft 421 kts 233°
2026-05-03 21:06 58.10361 -0.50965 35992 ft 421 kts 233°
2026-05-03 21:07 58.06639 -0.59526 35996 ft 422 kts 233°
2026-05-03 21:07 58.02906 -0.68070 36004 ft 422 kts 233°
2026-05-03 21:08 57.99169 -0.76591 36005 ft 419 kts 233°
2026-05-03 21:08 57.97319 -0.80796 35741 ft 415 kts 233°
2026-05-03 21:08 57.95482 -0.84964 35446 ft 413 kts 233°
2026-05-03 21:09 57.93650 -0.89109 35152 ft 410 kts 233°
2026-05-03 21:09 57.91832 -0.93218 34833 ft 408 kts 233°
2026-05-03 21:09 57.90016 -0.97321 34560 ft 408 kts 233°
2026-05-03 21:09 57.88204 -1.01406 34277 ft 406 kts 233°
2026-05-03 21:10 57.86397 -1.05471 33994 ft 404 kts 233°
2026-05-03 21:10 57.84599 -1.09508 33663 ft 402 kts 233°
2026-05-03 21:10 57.82833 -1.13460 33332 ft 399 kts 233°
2026-05-03 21:10 57.81032 -1.17494 32831 ft 398 kts 233°
2026-05-03 21:11 57.79278 -1.21423 32300 ft 397 kts 233°
2026-05-03 21:11 57.77510 -1.25368 31826 ft 394 kts 233°
2026-05-03 21:11 57.75751 -1.29277 31389 ft 391 kts 233°
2026-05-03 21:11 57.74006 -1.33146 30963 ft 387 kts 233°
2026-05-03 21:12 57.72276 -1.36980 30553 ft 384 kts 233°
2026-05-03 21:12 57.70561 -1.40787 30142 ft 381 kts 233°
2026-05-03 21:12 57.68858 -1.44566 29707 ft 378 kts 233°
2026-05-03 21:12 57.67168 -1.48307 29256 ft 375 kts 233°
2026-05-03 21:13 57.65485 -1.52016 28827 ft 372 kts 233°
2026-05-03 21:13 57.63813 -1.55691 28385 ft 370 kts 233°
2026-05-03 21:13 57.62142 -1.59364 27868 ft 372 kts 233°
2026-05-03 21:13 57.60470 -1.63035 27445 ft 371 kts 233°
2026-05-03 21:14 57.58803 -1.66684 27044 ft 368 kts 232°
2026-05-03 21:14 57.57143 -1.70306 26660 ft 366 kts 232°
2026-05-03 21:14 57.55495 -1.73905 26281 ft 364 kts 232°
2026-05-03 21:14 57.53862 -1.77477 25898 ft 361 kts 232°
2026-05-03 21:15 57.52237 -1.81031 25508 ft 359 kts 233°
2026-05-03 21:15 57.50625 -1.84552 25142 ft 356 kts 233°
2026-05-03 21:15 57.49015 -1.88043 24765 ft 354 kts 233°
2026-05-03 21:15 57.47418 -1.91499 24385 ft 351 kts 233°
2026-05-03 21:16 57.45824 -1.94936 23999 ft 349 kts 233°
2026-05-03 21:16 57.44247 -1.98344 23649 ft 346 kts 233°
2026-05-03 21:16 57.42705 -2.01678 23622 ft 340 kts 233°
2026-05-03 21:16 57.41163 -2.05011 23517 ft 341 kts 233°
2026-05-03 21:17 57.39615 -2.08344 23057 ft 341 kts 233°
2026-05-03 21:17 57.38591 -2.10550 22721 ft 341 kts 232°
2026-05-03 21:17 57.36525 -2.14989 22125 ft 338 kts 232°
2026-05-03 21:17 57.34985 -2.18285 21627 ft 338 kts 232°
2026-05-03 21:18 57.33451 -2.21569 21175 ft 337 kts 232°
2026-05-03 21:18 57.31921 -2.24842 20760 ft 335 kts 232°
2026-05-03 21:18 57.30236 -2.27793 20368 ft 336 kts 219°
2026-05-03 21:18 57.28337 -2.30294 19958 ft 334 kts 218°
2026-05-03 21:19 57.26446 -2.32754 19566 ft 332 kts 218°
2026-05-03 21:19 57.24558 -2.35193 19175 ft 330 kts 218°
2026-05-03 21:19 57.22685 -2.37610 18792 ft 328 kts 218°
2026-05-03 21:19 57.20842 -2.39992 18424 ft 326 kts 218°
2026-05-03 21:20 57.18994 -2.42385 18019 ft 324 kts 218°
2026-05-03 21:20 57.17159 -2.44763 17592 ft 322 kts 218°
2026-05-03 21:20 57.15333 -2.47127 17193 ft 319 kts 218°
2026-05-03 21:20 57.13520 -2.49470 16794 ft 317 kts 218°
2026-05-03 21:21 57.11715 -2.51798 16390 ft 315 kts 218°
2026-05-03 21:21 57.09927 -2.54102 15994 ft 313 kts 218°
2026-05-03 21:21 57.08147 -2.56393 15600 ft 311 kts 218°
2026-05-03 21:21 57.06375 -2.58675 15195 ft 310 kts 218°
2026-05-03 21:22 57.04612 -2.60941 14816 ft 309 kts 218°
2026-05-03 21:22 57.02852 -2.63200 14447 ft 307 kts 218°
2026-05-03 21:22 57.01102 -2.65441 14085 ft 306 kts 218°
2026-05-03 21:22 56.99360 -2.67666 13723 ft 304 kts 218°
2026-05-03 21:23 56.97623 -2.69881 13318 ft 303 kts 218°
2026-05-03 21:23 56.95900 -2.72080 12924 ft 302 kts 217°
2026-05-03 21:23 56.94182 -2.74267 12525 ft 300 kts 217°
2026-05-03 21:23 56.92467 -2.76444 12149 ft 299 kts 217°
2026-05-03 21:24 56.90761 -2.78607 11756 ft 298 kts 217°
2026-05-03 21:24 56.89064 -2.80764 11387 ft 296 kts 217°
2026-05-03 21:24 56.87374 -2.82913 11017 ft 295 kts 217°
2026-05-03 21:24 56.85694 -2.85049 10650 ft 294 kts 217°
2026-05-03 21:25 56.84015 -2.87183 10286 ft 293 kts 216°
2026-05-03 21:25 56.82346 -2.89301 9922 ft 292 kts 216°
2026-05-03 21:25 56.80679 -2.91411 9537 ft 290 kts 217°
2026-05-03 21:25 56.79045 -2.93469 9200 ft 288 kts 217°
2026-05-03 21:26 56.77401 -2.95538 8837 ft 286 kts 217°
2026-05-03 21:26 56.75768 -2.97596 8474 ft 285 kts 217°
2026-05-03 21:26 56.74143 -2.99638 8127 ft 283 kts 217°
2026-05-03 21:26 56.72521 -3.01667 7769 ft 282 kts 217°
2026-05-03 21:27 56.70906 -3.03691 7413 ft 281 kts 217°
2026-05-03 21:27 56.69304 -3.05705 7064 ft 279 kts 217°
2026-05-03 21:27 56.67707 -3.07709 6704 ft 278 kts 217°
2026-05-03 21:27 56.66120 -3.09696 6357 ft 277 kts 217°
2026-05-03 21:28 56.64537 -3.11675 5974 ft 276 kts 217°
2026-05-03 21:28 56.62957 -3.13646 5602 ft 275 kts 216°
2026-05-03 21:28 56.61383 -3.15607 5232 ft 274 kts 216°
2026-05-03 21:28 56.59813 -3.17563 4888 ft 273 kts 216°
2026-05-03 21:29 56.58248 -3.19512 4524 ft 272 kts 216°
2026-05-03 21:29 56.56695 -3.21447 4185 ft 270 kts 216°
2026-05-03 21:29 56.55152 -3.23366 3867 ft 268 kts 216°
2026-05-03 21:29 56.53626 -3.25259 3600 ft 264 kts 215°
2026-05-03 21:30 56.52125 -3.27115 3693 ft 262 kts 215°
2026-05-03 21:30 56.50607 -3.28991 3949 ft 266 kts 215°
2026-05-03 21:30 56.49072 -3.30888 4209 ft 268 kts 216°
2026-05-03 21:30 56.47534 -3.32790 4628 ft 266 kts 216°
2026-05-03 21:31 56.46054 -3.34614 5923 ft 260 kts 216°
2026-05-03 21:31 56.44515 -3.36517 6641 ft 275 kts 216°
2026-05-03 21:31 56.43465 -3.37826 6864 ft 278 kts 217°
2026-05-03 21:31 56.41889 -3.39844 6991 ft 278 kts 218°
2026-05-03 21:32 56.40321 -3.41887 7003 ft 277 kts 218°
2026-05-03 21:32 56.38761 -3.43928 6998 ft 277 kts 218°
2026-05-03 21:32 56.37200 -3.45967 7002 ft 276 kts 217°
2026-05-03 21:32 56.35639 -3.47994 7003 ft 276 kts 217°
2026-05-03 21:33 56.34077 -3.50015 6999 ft 276 kts 217°
2026-05-03 21:33 56.32513 -3.52038 6997 ft 276 kts 217°
2026-05-03 21:33 56.30946 -3.54063 6998 ft 277 kts 217°
2026-05-03 21:33 56.29383 -3.56077 6995 ft 276 kts 217°
2026-05-03 21:34 56.27819 -3.58088 6992 ft 276 kts 217°
2026-05-03 21:34 56.26254 -3.60099 6994 ft 277 kts 217°
2026-05-03 21:34 56.24684 -3.62110 6993 ft 277 kts 216°
2026-05-03 21:34 56.23109 -3.64131 6999 ft 279 kts 217°
2026-05-03 21:35 56.21530 -3.66162 7000 ft 279 kts 217°
2026-05-03 21:35 56.19973 -3.68249 7000 ft 279 kts 223°
2026-05-03 21:35 56.18694 -3.70840 7001 ft 277 kts 234°
2026-05-03 21:35 56.17535 -3.73611 7000 ft 277 kts 234°
2026-05-03 21:36 56.16370 -3.76372 6998 ft 278 kts 234°
2026-05-03 21:36 56.15197 -3.79103 6996 ft 272 kts 231°
2026-05-03 21:36 56.13766 -3.81161 6997 ft 261 kts 207°
2026-05-03 21:36 56.12034 -3.82030 6969 ft 260 kts 183°
2026-05-03 21:37 56.10278 -3.81638 6914 ft 259 kts 162°
2026-05-03 21:37 56.08536 -3.80640 6865 ft 260 kts 162°
2026-05-03 21:37 56.06814 -3.79655 6802 ft 259 kts 162°
2026-05-03 21:37 56.05117 -3.78690 6746 ft 259 kts 162°
2026-05-03 21:38 56.03376 -3.77704 6692 ft 259 kts 162°
2026-05-03 21:38 56.01662 -3.76737 6635 ft 259 kts 162°
2026-05-03 21:38 55.99946 -3.75771 6579 ft 258 kts 162°
2026-05-03 21:38 55.98233 -3.74807 6527 ft 258 kts 162°
2026-05-03 21:39 55.96543 -3.73859 6472 ft 258 kts 162°
2026-05-03 21:39 55.94835 -3.72902 6399 ft 258 kts 162°
2026-05-03 21:39 55.93123 -3.71942 6265 ft 257 kts 162°
2026-05-03 21:39 55.91419 -3.70984 6132 ft 256 kts 162°
2026-05-03 21:40 55.89722 -3.70029 6010 ft 256 kts 162°
2026-05-03 21:40 55.88027 -3.69079 5979 ft 254 kts 162°
2026-05-03 21:40 55.86331 -3.68133 6003 ft 256 kts 162°
2026-05-03 21:40 55.84633 -3.67187 6006 ft 256 kts 162°
2026-05-03 21:41 55.82932 -3.66239 6006 ft 256 kts 162°
2026-05-03 21:41 55.81257 -3.65180 6007 ft 255 kts 152°
2026-05-03 21:41 55.79662 -3.63817 5932 ft 251 kts 164°
2026-05-03 21:41 55.77965 -3.63757 5760 ft 243 kts 197°